Regional Weather Roundup
Issued by NWS

Home | Current Version | Previous Version | Text Only | Print | Product List | Glossary On
Versions: 1 2 3 4 5 6 7 8 9 10 11 12 13 14 15 16 17 18 19 20 21 22 23 24 25 26 27 28
000
ASUS44 KLIX 242313
RWRLA
LOUISIANA WEATHER ROUNDUP
NATIONAL WEATHER SERVICE NEW ORLEANS LA
600 PM CDT SAT JUN 24 2017

NOTE: "FAIR" INDICATES FEW OR NO CLOUDS BELOW 12,000 FEET WITH NO
      SIGNIFICANT WEATHER AND/OR OBSTRUCTIONS TO VISIBILITY.
      SKY/WX - SKY CONDITION AND SIGNIFICANT WEATHER.
      TMP - AIR TEMPERATURE.    DP   - DEWPOINT TEMPERATURE.
      RH  - RELATIVE HUMIDITY.  PRES - PRESSURE.
      HX  - HEAT INDEX.         WCI  - WIND CHILL INDEX.

*  THESE STATIONS ARE NOT NWS OR FAA STATIONS AND ARE NOT UNDER
   NWS QUALITY CONTROL.

LAZ040-048-061>063-065-066-069-250000-
SOUTHEAST LOUISIANA

CITY           SKY/WX    TMP DP  RH WIND       PRES   REMARKS
N.O. INTL ARPT LGT RAIN  78  75  90 N5        30.05F
N.O. LAKEFRONT CLOUDY    81  76  84 NW9       30.05F
N.O. DOWNTOWN*   N/A     81  76  84 N6          N/A
RESERVE*       RAIN      77  74  89 CALM      30.05F
SLIDELL        LGT RAIN  76  73  91 CALM      30.04R
BATON ROUGE    CLOUDY    78  75  90 CALM      30.04F
BOOTHVILLE     SUNNY     86  77  74 SW7       30.05R HX  97
BELLE CHASSE   CLOUDY    82  76  81 VRB5      30.05R
BOGALUSA*      FAIR      82  76  81 W10       30.05S
GALLIANO*      CLOUDY    82  73  74 NW12      30.05R
NEW ROADS*       N/A     77  75  92 NW6       30.05F
GONZALES*      MOCLDY    80  72  78 CALM      30.05R
HAMMOND*       RAIN      72  70  94 CALM      30.04F
HOUMA*         MOSUNNY   79  73  83 N17       30.05
PORT FOURCHON* MOCLDY   N/A N/A N/A W7        30.05R

$$

LAZ041-044-053-054-250000-
SOUTHWEST LOUISIANA

CITY           SKY/WX    TMP DP  RH WIND       PRES   REMARKS
LAKE CHARLES   SUNNY     87  78  74 NE9       30.01F HX 100
LAFAYETTE      CLOUDY    79  77  94 NE5       30.05S FOG
PATTERSON      PTSUNNY   82  74  76 N18       30.05R
SALT POINT       N/A     87  76  69 VRB3      30.02S HX  97
NEW IBERIA     CLOUDY    79  73  82 NE9       30.05F
CHENAULT AIRPK NOT AVBL

$$

LAZ027-028-250000-
CENTRAL LOUISIANA

CITY           SKY/WX    TMP DP  RH WIND       PRES   REMARKS
FORT POLK      CLOUDY    76  74  92 CALM      30.03F
ALEXANDRIA INT LGT RAIN  74  73  97 N3        30.05F FOG
ALEXANDRIA     LGT RAIN  75  75 100 SW6       30.07R

$$

LAZ001-002-250000-
NORTHWEST LOUISIANA

CITY           SKY/WX    TMP DP  RH WIND       PRES   REMARKS
SHREVEPORT     CLOUDY    82  72  71 NE10      30.04F
BARKSDALE AFB  CLOUDY    82  71  68 NE6       30.04F
DTN SHREVEPORT CLOUDY    83  70  64 N10       30.05F

$$

LAZ014-016-250000-
NORTHEAST LOUISIANA

CITY           SKY/WX    TMP DP  RH WIND       PRES   REMARKS
MONROE         CLOUDY    83  67  58 NE9       30.07S
TALLULAH       CLOUDY    83  72  69 N10       30.05S

$$





USA.gov is the U.S. government's official web portal to all federal, state and local government web resources and services.